RYR93GN LEMG-EDDK

Flight info

Callsign RYR93GN
Flight time N/A
Altitude 36000
Route BLN N865 VTB N867 DGO L176 LUSEM DCT LULUT DCT ADABI DCT BOKNO DCT DIBES DCT VIQAQ DCT TSU DCT OQQAL DCT RANUX DCT VALEK DCT LUTAX UM163 DIK N853 ARCKY T853 IBESA T860 ERUKI ERUKI1F
Aircraft B738/M-SDE2E3FGHIRWXY/LB1

Departure

Time N/A
Airport Málaga-Costa del Sol Airport (LEMG)

Arrival

Time 2026-05-01 08:06
Airport Cologne Bonn Airport (EDDK)
Time Latitude Longitude Altitude Speed Heading
2026-05-01 07:23 48.78941 2.29617 36239 ft 448 kts 78°
2026-05-01 07:24 48.81279 2.43089 36238 ft 449 kts 77°
2026-05-01 07:24 48.81906 2.46616 36230 ft 449 kts 77°
2026-05-01 07:25 48.83415 2.55087 36245 ft 449 kts 77°
2026-05-01 07:25 48.85038 2.64253 36233 ft 449 kts 77°
2026-05-01 07:26 48.86648 2.73408 36239 ft 449 kts 78°
2026-05-01 07:26 48.87980 2.81024 36239 ft 448 kts 78°
2026-05-01 07:27 48.89833 2.91674 36237 ft 448 kts 78°
2026-05-01 07:27 48.91153 2.99299 36238 ft 448 kts 78°
2026-05-01 07:28 48.92732 3.08468 36232 ft 448 kts 78°
2026-05-01 07:28 48.94301 3.17622 36246 ft 447 kts 78°
2026-05-01 07:29 48.95864 3.26787 36240 ft 447 kts 78°
2026-05-01 07:29 48.97417 3.35944 36244 ft 447 kts 78°
2026-05-01 07:30 48.98962 3.45103 36249 ft 447 kts 78°
2026-05-01 07:30 49.00503 3.54284 36248 ft 447 kts 78°
2026-05-01 07:31 49.02033 3.63455 36249 ft 446 kts 78°
2026-05-01 07:32 49.05814 3.86322 36261 ft 446 kts 78°
2026-05-01 07:33 49.08069 4.00108 36269 ft 446 kts 78°
2026-05-01 07:33 49.10303 4.13878 36265 ft 447 kts 78°
2026-05-01 07:34 49.12532 4.27724 36262 ft 447 kts 78°
2026-05-01 07:35 49.14054 4.36935 36262 ft 448 kts 74°
2026-05-01 07:35 49.16349 4.45758 36260 ft 449 kts 69°
2026-05-01 07:36 49.18819 4.54545 36269 ft 449 kts 69°
2026-05-01 07:36 49.21250 4.63356 36265 ft 450 kts 69°
2026-05-01 07:37 49.24832 4.76636 36267 ft 450 kts 69°
2026-05-01 07:37 49.27207 4.85520 36277 ft 450 kts 69°
2026-05-01 07:38 49.29561 4.94355 36261 ft 450 kts 70°
2026-05-01 07:39 49.33098 5.07686 36283 ft 449 kts 70°
2026-05-01 07:39 49.36619 5.21029 36271 ft 449 kts 71°
2026-05-01 07:40 49.38939 5.29869 36280 ft 449 kts 69°
2026-05-01 07:40 49.41263 5.38758 36270 ft 449 kts 69°
2026-05-01 07:41 49.43580 5.47658 36277 ft 449 kts 69°
2026-05-01 07:42 49.47047 5.61034 36282 ft 449 kts 69°
2026-05-01 07:42 49.49354 5.69966 36284 ft 449 kts 69°
2026-05-01 07:43 49.52496 5.78226 36317 ft 450 kts 50°
2026-05-01 07:43 49.54757 5.81568 36290 ft 452 kts 38°
2026-05-01 07:43 49.60052 5.86959 35390 ft 455 kts 33°
2026-05-01 07:44 49.65372 5.92091 34075 ft 452 kts 33°
2026-05-01 07:44 49.70659 5.97339 32617 ft 450 kts 34°
2026-05-01 07:45 49.73287 5.99982 31887 ft 449 kts 34°
2026-05-01 07:45 49.75907 6.02630 31171 ft 449 kts 34°
2026-05-01 07:45 49.78528 6.05278 30428 ft 449 kts 34°
2026-05-01 07:45 49.81143 6.07919 29520 ft 450 kts 34°
2026-05-01 07:46 49.83830 6.10405 28631 ft 451 kts 27°
2026-05-01 07:46 49.86775 6.12107 27788 ft 452 kts 16°
2026-05-01 07:46 49.92945 6.13225 26619 ft 444 kts
2026-05-01 07:47 49.96016 6.13187 26059 ft 439 kts
2026-05-01 07:47 49.99016 6.13135 25517 ft 433 kts
2026-05-01 07:47 50.02037 6.13101 24980 ft 436 kts
2026-05-01 07:47 50.05117 6.13094 24412 ft 448 kts
2026-05-01 07:48 50.11315 6.13113 23162 ft 439 kts
2026-05-01 07:48 50.14356 6.13132 22563 ft 433 kts
2026-05-01 07:48 50.17320 6.13150 21997 ft 428 kts
2026-05-01 07:49 50.20281 6.13169 21440 ft 423 kts
2026-05-01 07:49 50.26115 6.13211 20364 ft 415 kts
2026-05-01 07:49 50.28955 6.13784 19808 ft 408 kts 18°
2026-05-01 07:50 50.31633 6.15194 19294 ft 405 kts 26°
2026-05-01 07:50 50.36493 6.19812 18127 ft 413 kts 37°
2026-05-01 07:50 50.38854 6.22322 17549 ft 407 kts 37°
2026-05-01 07:51 50.41193 6.24780 16997 ft 402 kts 36°
2026-05-01 07:51 50.43510 6.27182 16460 ft 397 kts 36°
2026-05-01 07:51 50.45809 6.29551 15938 ft 393 kts 36°
2026-05-01 07:52 50.49704 6.35235 14930 ft 376 kts 58°
2026-05-01 07:52 50.51012 6.38775 14248 ft 374 kts 69°
2026-05-01 07:52 50.52013 6.42552 13638 ft 372 kts 70°
2026-05-01 07:53 50.53975 6.49955 12483 ft 367 kts 69°
2026-05-01 07:53 50.54973 6.53638 11908 ft 365 kts 69°
2026-05-01 07:53 50.55953 6.57237 11441 ft 360 kts 69°
2026-05-01 07:53 50.56919 6.60781 11300 ft 346 kts 69°
2026-05-01 07:54 50.58742 6.67497 11006 ft 322 kts 69°
2026-05-01 07:55 50.62854 6.74914 10649 ft 306 kts 22°
2026-05-01 07:55 50.67015 6.75568 10405 ft 296 kts
2026-05-01 07:56 50.73195 6.75707 9211 ft 304 kts
2026-05-01 07:56 50.77469 6.75855 8336 ft 311 kts
2026-05-01 07:57 50.79644 6.75936 7886 ft 313 kts
2026-05-01 07:57 50.83920 6.76087 7026 ft 303 kts
2026-05-01 07:58 50.88056 6.76216 6285 ft 289 kts
2026-05-01 07:58 50.91959 6.76338 5658 ft 276 kts
2026-05-01 07:59 50.95500 6.77921 4909 ft 261 kts 31°
2026-05-01 07:59 50.98571 6.80621 4339 ft 238 kts 55°
2026-05-01 08:00 51.02332 6.88372 3801 ft 209 kts 65°
2026-05-01 08:01 51.01169 6.93646 3446 ft 182 kts 134°
2026-05-01 08:01 51.00300 6.95073 3319 ft 182 kts 137°
2026-05-01 08:01 50.99391 6.96445 3222 ft 178 kts 139°
2026-05-01 08:02 50.97670 6.98951 2844 ft 158 kts 139°
2026-05-01 08:02 50.96902 7.00066 2650 ft 143 kts 139°
2026-05-01 08:03 50.95474 7.02135 2291 ft 131 kts 140°
2026-05-01 08:03 50.94824 7.03075 2104 ft 122 kts 140°
2026-05-01 08:03 50.93615 7.04826 1765 ft 120 kts 137°
2026-05-01 08:04 50.92353 7.06663 1432 ft 125 kts 138°
2026-05-01 08:04 50.91075 7.08533 1112 ft 129 kts 137°
2026-05-01 08:05 50.89769 7.10414 767 ft 124 kts 139°
2026-05-01 08:05 50.89152 7.11323 585 ft 125 kts 137°
2026-05-01 08:05 50.88490 7.12276 431 ft 126 kts 139°
2026-05-01 08:06 50.87333 7.13955 241 ft 90 kts 137°
2026-05-01 08:06 50.86892 7.14530 259 ft 10 kts 181°
2026-05-01 08:07 50.86882 7.14376 258 ft 9 kts 281°
2026-05-01 08:07 50.86909 7.14125 254 ft 13 kts 279°
2026-05-01 08:08 50.86923 7.13987 251 ft 15 kts 279°
2026-05-01 08:08 50.87081 7.13695 240 ft 20 kts 317°
2026-05-01 08:09 50.87300 7.13378 231 ft 23 kts 317°
2026-05-01 08:09 50.87414 7.13214 231 ft 22 kts 317°
2026-05-01 08:09 50.87523 7.13056 231 ft 21 kts 317°
2026-05-01 08:10 50.87736 7.12748 231 ft 20 kts 317°
2026-05-01 08:10 50.87828 7.12485 231 ft 8 kts 288°
2026-05-01 08:11 50.87833 7.12457 234 ft 0 kts 287°